Location: 22
(39.7117°N, 89.5929°W)
Time: 02:59:23
(UTC-05:00)

A-11 Canister half - Pass Details

Date: 15 June 2023
Orbit: 1524 x 1684 km, 47.3° (Epoch: 30 September)

Event Time Altitude Azimuth Distance (km) Brightness Sun altitude
Rises 21:50:21 0° 281° (WNW) 4,678 12.5 -13.1°
Reaches altitude 10° 21:53:31 10° 286° (WNW) 3,691 12.0 -13.6°
Maximum altitude 22:02:34 54° 3° (N) 1,800 9.6 -14.7°
Drops below altitude 10° 22:11:45 10° 80° (E) 3,732 10.7 -15.9°
Sets 22:14:58 0° 85° (E) 4,733 11.2 -16.3°
